Location: Unspecified
(0.0000°N, 0.0000°E)
Time: 01:25:39
(UTC+00:00)

Envisat - Pass Details

Date: 27 June 2022
Orbit: 764 x 765 km, 98.2° (Epoch: 28 June)

Event Time Altitude Azimuth Distance (km) Brightness Sun altitude
Rises 05:07:00 0° 341° (NNW) 3,213 6.3 -12.8°
Reaches altitude 10° 05:10:06 10° 321° (NW) 2,291 5.3 -12.1°
Maximum altitude 05:13:12 17° 282° (WNW) 1,881 4.6 -11.4°
Enters shadow 05:15:05 14° 257° (WSW) 2,043 4.6 -11.0°
